This is the latest recevied weather packets stored in our database for station/object KG4IFE-13. If no packets are shown the sender has not sent any weather packets the latest 10 day(s).
| Time | Temp. | Humidity | Pressure | Rain* | Wind** | Luminosity | Snow |
|---|---|---|---|---|---|---|---|
| 1777548692 | 11.67° C | 84% | 1010.6 hPa | - | - | - | - |
| 1777545704 | 12.22° C | 80% | 1009.5 hPa | - | - | - | - |
| 1777544779 | 12.22° C | 80% | 1009.8 hPa | - | - | - | - |
| 1777542376 | 12.78° C | 79% | 1008.8 hPa | - | - | - | - |
| 1777540284 | 12.78° C | 79% | 1009.2 hPa | - | - | - | - |
| 1777536692 | 12.22° C | 80% | 1009.6 hPa | - | - | - | - |
| 1777533040 | 12.78° C | 78% | 1009.8 hPa | - | - | - | - |
| 1777532139 | 12.78° C | 78% | 1010.2 hPa | - | - | - | - |
| 1777530932 | 12.78° C | 79% | 1010.2 hPa | - | - | - | - |
| 1777530331 | 12.78° C | 78% | 1010.3 hPa | - | - | - | - |
| 1777529429 | 12.78° C | 78% | 1010.3 hPa | - | - | - | - |
| 1777528225 | 13.33° C | 78% | 1010.4 hPa | - | - | - | - |
| 1777527923 | 13.33° C | 78% | 1010.4 hPa | - | - | - | - |
| 1777524311 | 14.44° C | 78% | 1010.6 hPa | - | - | - | - |
| 1777522807 | 15° C | 81% | 1010.3 hPa | - | - | - | - |
| 1777522506 | 14.44° C | 83% | 1010.3 hPa | - | - | - | - |
| 1777517689 | 15° C | 85% | 1010.4 hPa | - | - | - | - |
| 1777516786 | 15° C | 85% | 1010.2 hPa | - | - | - | - |
| 1777516186 | 15° C | 86% | 1010.1 hPa | - | - | - | - |
| 1777515282 | 15° C | 87% | 1010.3 hPa | - | - | - | - |
| 1777514681 | 15° C | 87% | 1010 hPa | - | - | - | - |
| 1777512271 | 16.11° C | 88% | 1010 hPa | - | - | - | - |
| 1777511970 | 16.11° C | 88% | 1010 hPa | - | - | - | - |
| 1777511669 | 16.11° C | 88% | 1009.8 hPa | - | - | - | - |
| 1777509562 | 16.67° C | 89% | 1009.2 hPa | - | - | - | - |
* Rain since midnight (hover to see other rain measurements)
** Current wind speed in m/s (hover to see current wind gust speed)